Weather History for Hammond, LA

Change the Weather History Date:

Thursday, December 19, 2013

  Actual Average (KMSY) Record (KMSY)
Temperature  
Mean Temperature 55 °F -  
Max Temperature 73 °F 65 °F 82 °F (1967)
Min Temperature 37 °F 45 °F 27 °F (1975)
Degree Days  
Heating Degree Days 10    
Growing Degree Days 5 (Base 50)    
Moisture  
Dew Point 49 °F    
Average Humidity 75    
Maximum Humidity 93    
Minimum Humidity 50    
Precipitation  
Precipitation 0.00 in - - ()
Sea Level Pressure  
Sea Level Pressure 30.15 in    
Wind  
Wind Speed 3 mph (SE)    
Max Wind Speed 14 mph    
Max Gust Speed 18 mph    
Visibility 10 miles    
Events      
Averages and records for this station are not official NWS values.
T = Trace of Precipitation, MM = Missing Value Source: NWS Daily Summary

Daily Weather History Graph

Daily Weather History Graph

Search for Another Location

Airport:

Trip Planner

Search our weather history database for the weather conditions in past years. The results will help you decide how hot, cold, wet, or windy it might be!

Date:

Astronomy

Dec. 19, 2013 Rise Set
Actual Time 6:53 AM CST 5:04 PM CST
Civil Twilight 6:27 AM CST 5:30 PM CST
Nautical Twilight 5:57 AM CST 6:00 PM CST
Astronomical Twilight 5:27 AM CST 6:30 PM CST
Moon 7:21 PM CST (12/19) 8:19 AM CST (12/19)
Length of Visible Light 11h 03m
Length of Day
10h 10m
Waning Gibbous, 95% of the Moon is Illuminated
Dec 19
Waning Gibbous
Dec 25
Last Quarter
Jan 1
New
Jan 7
First Quarter
Jan 15
Full

Hourly Weather History & Observations

Time (CST) Temp. Dew Point Humidity Pressure Visibility Wind Dir Wind Speed Gust Speed Precip Events Conditions
12:15 AM 39.2 °F 35.6 °F 87% 30.23 in 10.0 mi Calm Calm - N/A   Clear
12:35 AM 39.2 °F 35.6 °F 87% 30.23 in 10.0 mi Calm Calm - N/A   Clear
12:55 AM 39.2 °F 37.4 °F 93% 30.22 in 10.0 mi Calm Calm - N/A   Clear
1:15 AM 39.2 °F 35.6 °F 87% 30.22 in 10.0 mi Calm Calm - N/A   Clear
1:35 AM 39.2 °F 35.6 °F 87% 30.21 in 10.0 mi Calm Calm - N/A   Clear
1:55 AM 37.4 °F 35.6 °F 93% 30.22 in 10.0 mi Calm Calm - N/A   Clear
2:15 AM 39.2 °F 35.6 °F 87% 30.21 in 10.0 mi Calm Calm - N/A   Mostly Cloudy
2:35 AM 39.2 °F 37.4 °F 93% 30.21 in 10.0 mi Calm Calm - N/A   Mostly Cloudy
2:55 AM 41.0 °F 39.2 °F 93% 30.21 in 10.0 mi Calm Calm - N/A   Mostly Cloudy
3:15 AM 41.0 °F 39.2 °F 93% 30.20 in 10.0 mi Calm Calm - N/A   Mostly Cloudy
3:35 AM 41.0 °F 39.2 °F 93% 30.20 in 10.0 mi Calm Calm - N/A   Scattered Clouds
3:55 AM 41.0 °F 39.2 °F 93% 30.20 in 10.0 mi Calm Calm - N/A   Mostly Cloudy
4:15 AM 42.8 °F 39.2 °F 87% 30.19 in 10.0 mi Calm Calm - N/A   Mostly Cloudy
4:35 AM 42.8 °F 39.2 °F 87% 30.19 in 10.0 mi Calm Calm - N/A   Mostly Cloudy
4:55 AM 42.8 °F 41.0 °F 93% 30.19 in 10.0 mi Calm Calm - N/A   Mostly Cloudy
5:15 AM 44.6 °F 42.8 °F 93% 30.19 in 10.0 mi Calm Calm - N/A   Overcast
5:35 AM 44.6 °F 42.8 °F 93% 30.19 in 10.0 mi Calm Calm - N/A   Mostly Cloudy
5:55 AM 44.6 °F 42.8 °F 93% 30.19 in 10.0 mi Calm Calm - N/A   Mostly Cloudy
6:15 AM 46.4 °F 42.8 °F 87% 30.19 in 10.0 mi Calm Calm - N/A   Scattered Clouds
6:35 AM 46.4 °F 42.8 °F 87% 30.20 in 10.0 mi Calm Calm - N/A   Mostly Cloudy
6:55 AM 46.4 °F 44.6 °F 93% 30.20 in 10.0 mi Calm Calm - N/A   Overcast
7:15 AM 48.2 °F 44.6 °F 87% 30.20 in 10.0 mi Calm Calm - N/A   Mostly Cloudy
7:35 AM 50.0 °F 46.4 °F 87% 30.20 in 10.0 mi Calm Calm - N/A   Mostly Cloudy
7:55 AM 51.8 °F 48.2 °F 88% 30.21 in 10.0 mi Calm Calm - N/A   Overcast
8:15 AM 53.6 °F 48.2 °F 82% 30.21 in 10.0 mi Calm Calm - N/A   Mostly Cloudy
8:35 AM 55.4 °F 50.0 °F 82% 30.21 in 10.0 mi ESE 3.5 mph - N/A   Mostly Cloudy
8:55 AM 57.2 °F 51.8 °F 82% 30.21 in 10.0 mi SE 3.5 mph - N/A   Scattered Clouds
9:15 AM 60.8 °F 51.8 °F 72% 30.21 in 10.0 mi SE 6.9 mph - N/A   Mostly Cloudy
9:35 AM 62.6 °F 53.6 °F 72% 30.21 in 10.0 mi SE 5.8 mph - N/A   Scattered Clouds
9:55 AM 64.4 °F 53.6 °F 68% 30.21 in 10.0 mi ESE 4.6 mph - N/A   Scattered Clouds
10:15 AM 68.0 °F 53.6 °F 60% 30.20 in 10.0 mi SSE 6.9 mph - N/A   Scattered Clouds
10:35 AM 69.8 °F 53.6 °F 56% 30.20 in 10.0 mi SSE 8.1 mph - N/A   Scattered Clouds
10:55 AM 69.8 °F 53.6 °F 56% 30.19 in 10.0 mi SSE 9.2 mph - N/A   Mostly Cloudy
11:15 AM 69.8 °F 53.6 °F 56% 30.18 in 10.0 mi SSE 12.7 mph - N/A   Mostly Cloudy
11:35 AM 69.8 °F 53.6 °F 56% 30.17 in 10.0 mi SE 9.2 mph - N/A   Scattered Clouds
11:55 AM 69.8 °F 53.6 °F 56% 30.16 in 10.0 mi SSE 12.7 mph - N/A   Mostly Cloudy
12:15 PM 71.6 °F 53.6 °F 53% 30.15 in 10.0 mi SSE 10.4 mph - N/A   Mostly Cloudy
12:35 PM 71.6 °F 55.4 °F 57% 30.14 in 10.0 mi SE 11.5 mph - N/A   Mostly Cloudy
12:55 PM 71.6 °F 55.4 °F 57% 30.12 in 10.0 mi SE 12.7 mph - N/A   Mostly Cloudy
1:15 PM 71.6 °F 55.4 °F 57% 30.11 in 10.0 mi SSE 9.2 mph 16.1 mph N/A   Scattered Clouds
1:35 PM 73.4 °F 55.4 °F 53% 30.11 in 10.0 mi SE 11.5 mph - N/A   Scattered Clouds
1:55 PM 73.4 °F 53.6 °F 50% 30.10 in 10.0 mi SSE 13.8 mph 18.4 mph N/A   Scattered Clouds
2:15 PM 73.4 °F 53.6 °F 50% 30.10 in 10.0 mi SE 11.5 mph - N/A   Scattered Clouds
2:35 PM 71.6 °F 53.6 °F 53% 30.09 in 10.0 mi SE 11.5 mph 18.4 mph N/A   Scattered Clouds
2:55 PM 71.6 °F 53.6 °F 53% 30.09 in 10.0 mi SE 10.4 mph - N/A   Mostly Cloudy
3:15 PM 71.6 °F 53.6 °F 53% 30.09 in 10.0 mi SE 10.4 mph - N/A   Mostly Cloudy
3:35 PM 69.8 °F 53.6 °F 56% 30.10 in 10.0 mi SE 9.2 mph - N/A   Mostly Cloudy
3:55 PM 69.8 °F 53.6 °F 56% 30.09 in 10.0 mi SE 9.2 mph - N/A   Overcast
4:15 PM 68.0 °F 55.4 °F 64% 30.09 in 10.0 mi SE 8.1 mph - N/A   Overcast
4:35 PM 68.0 °F 53.6 °F 60% 30.09 in 10.0 mi SE 8.1 mph - N/A   Mostly Cloudy
4:55 PM 66.2 °F 53.6 °F 64% 30.09 in 10.0 mi SE 8.1 mph - N/A   Overcast
5:15 PM 64.4 °F 53.6 °F 68% 30.09 in 10.0 mi SE 8.1 mph - N/A   Scattered Clouds
5:35 PM 64.4 °F 53.6 °F 68% 30.08 in 10.0 mi ESE 6.9 mph - N/A   Mostly Cloudy
5:55 PM 62.6 °F 53.6 °F 72% 30.09 in 10.0 mi SE 8.1 mph - N/A   Overcast
6:15 PM 64.4 °F 53.6 °F 68% 30.09 in 10.0 mi SE 9.2 mph - N/A   Overcast
6:35 PM 62.6 °F 53.6 °F 72% 30.10 in 10.0 mi SE 6.9 mph - N/A   Overcast
6:55 PM 62.6 °F 55.4 °F 77% 30.09 in 10.0 mi SE 6.9 mph - N/A   Overcast
7:15 PM 62.6 °F 55.4 °F 77% 30.10 in 10.0 mi SE 5.8 mph - N/A   Overcast
7:35 PM 62.6 °F 55.4 °F 77% 30.10 in 10.0 mi SE 8.1 mph - N/A   Overcast
7:55 PM 64.4 °F 55.4 °F 73% 30.09 in 10.0 mi SE 8.1 mph - N/A   Overcast
8:15 PM 62.6 °F 55.4 °F 77% 30.09 in 10.0 mi SE 8.1 mph - N/A   Overcast
8:35 PM 62.6 °F 55.4 °F 77% 30.09 in 10.0 mi SE 9.2 mph - N/A   Overcast
8:55 PM 62.6 °F 55.4 °F 77% 30.09 in 10.0 mi SE 6.9 mph - N/A   Mostly Cloudy
9:15 PM 62.6 °F 55.4 °F 77% 30.09 in 10.0 mi SE 9.2 mph - N/A   Overcast
9:35 PM 62.6 °F 55.4 °F 77% 30.08 in 10.0 mi SE 8.1 mph - N/A   Overcast
9:55 PM 62.6 °F 55.4 °F 77% 30.08 in 10.0 mi SE 8.1 mph - N/A   Overcast
10:15 PM 62.6 °F 55.4 °F 77% 30.08 in 10.0 mi SE 6.9 mph - N/A   Overcast
10:35 PM 62.6 °F 55.4 °F 77% 30.08 in 10.0 mi SE 5.8 mph - N/A   Overcast
10:55 PM 62.6 °F 55.4 °F 77% 30.07 in 10.0 mi SE 6.9 mph - N/A   Overcast
11:15 PM 62.6 °F 55.4 °F 77% 30.06 in 10.0 mi SE 4.6 mph - N/A   Overcast
11:35 PM 60.8 °F 55.4 °F 82% 30.05 in 10.0 mi SE 4.6 mph - N/A   Overcast
11:55 PM 60.8 °F 55.4 °F 82% 30.05 in 10.0 mi SE 4.6 mph - N/A   Overcast